Location: Carrigahorig
(53.0625°N, 8.1439°W)
Time: 23:25:03
(UTC+00:00)

Cosmos 44 - Pass Details

Date: 15 May 2026
Orbit: 568 x 782 km, 65.1° (Epoch: 6 June)

Event Time Altitude Azimuth Distance (km) Brightness Sun altitude
Rises 22:29:34 0° 316° (NW) 3,278 8.4 -13.4°
Reaches altitude 10° 22:32:00 10° 315° (NW) 2,347 7.3 -13.6°
Maximum altitude 22:37:26 83° 230° (SW) 786 3.5 -14.0°
Enters shadow 22:41:01 21° 143° (SE) 1,653 4.6 -14.2°
